Roseau, MN

1:36 AM CDT on October 22, 2017 (GMT -0500)
Roseau Municipal-Billberg

Weather History for KROX - March, 2014

Change the Weather History Date:

Saturday, March 15, 2014

  Actual Average Record
Temperature  
Mean Temperature 4 °F -  
Max Temperature 14 °F 34 °F 62 °F (2015)
Min Temperature -5 °F 11 °F -20 °F (1956)
Degree Days  
Heating Degree Days 60    
Moisture  
Dew Point -4 °F    
Average Humidity 67    
Maximum Humidity 84    
Minimum Humidity 52    
Precipitation  
Precipitation 0.00 in - - ()
Sea Level Pressure  
Sea Level Pressure 30.31 in    
Wind  
Wind Speed 4 mph (NE)    
Max Wind Speed 10 mph    
Max Gust Speed -    
Visibility 10 miles    
Events      
Averages and records for this station are not official NWS values.
T = Trace of Precipitation, MM = Missing Value Source: NWS Daily Summary

Daily Weather History Graph

Daily Weather History Graph

Search for Another Location

Airport or City:

Trip Planner

Search our weather history database for the weather conditions in past years. The results will help you decide how hot, cold, wet, or windy it might be!

Date:

Astronomy

Mar. 15, 2014 Rise Set
Actual Time 7:36 AM CDT 7:28 PM CDT
Civil Twilight 7:04 AM CDT 7:59 PM CDT
Nautical Twilight 6:27 AM CDT 8:36 PM CDT
Astronomical Twilight 5:50 AM CDT 9:14 PM CDT
Moon 6:47 PM CDT (3/15) 6:51 AM CDT (3/15)
Length of Visible Light 12h 55m
Length of Day
11h 52m
Waxing Gibbous, 99% of the Moon is Illuminated
Mar 15
Waxing Gibbous
Mar 16
Full
Mar 23
Last Quarter
Mar 30
New
Apr 7
First Quarter

Hourly Weather History & Observations

Time (CDT) Temp. Windchill Dew Point Humidity Pressure Visibility Wind Dir Wind Speed Gust Speed Precip Events Conditions
12:14 AM 3.2 °F -9.1 °F -2.2 °F 78% 30.02 in 10.0 mi NNW 6.9 mph - N/A   Clear
12:34 AM 5.0 °F - -2.2 °F 72% 30.02 in 10.0 mi Calm Calm - N/A   Clear
12:54 AM 5.0 °F -4.1 °F -2.2 °F 72% 30.03 in 10.0 mi NW 4.6 mph - N/A   Clear
1:14 AM 3.2 °F -7.8 °F -2.2 °F 78% 30.03 in 10.0 mi NNW 5.8 mph - N/A   Clear
1:34 AM 3.2 °F -6.2 °F -4.0 °F 72% 30.04 in 10.0 mi NNW 4.6 mph - N/A   Clear
1:54 AM 3.2 °F -4.2 °F -2.2 °F 78% - 10.0 mi NW 3.5 mph - N/A   Clear
2:14 AM 3.2 °F -4.2 °F -4.0 °F 72% 30.05 in 10.0 mi NW 3.5 mph - N/A   Clear
2:34 AM 3.2 °F - -4.0 °F 72% 30.06 in 10.0 mi Calm Calm - N/A   Clear
2:54 AM 3.2 °F -6.2 °F -4.0 °F 72% 30.07 in 10.0 mi NW 4.6 mph - N/A   Clear
3:14 AM 1.4 °F -8.3 °F -5.8 °F 72% 30.08 in 10.0 mi NW 4.6 mph - N/A   Clear
3:34 AM 1.4 °F - -5.8 °F 72% 30.09 in 10.0 mi Calm Calm - N/A   Clear
3:54 AM -0.4 °F -8.3 °F -5.8 °F 78% 30.09 in 10.0 mi North 3.5 mph - N/A   Clear
4:14 AM -0.4 °F -10.4 °F -7.6 °F 72% 30.10 in 10.0 mi North 4.6 mph - N/A   Clear
4:34 AM -2.2 °F -14.2 °F -7.6 °F 78% 30.11 in 10.0 mi North 5.8 mph - N/A   Scattered Clouds
4:54 AM -2.2 °F -10.4 °F -7.6 °F 78% 30.11 in 10.0 mi North 3.5 mph - N/A   Clear
5:14 AM -2.2 °F -14.2 °F -7.6 °F 78% 30.12 in 10.0 mi NNE 5.8 mph - N/A   Clear
5:34 AM -0.4 °F - -7.6 °F 72% 30.14 in 10.0 mi Calm Calm - N/A   Scattered Clouds
5:54 AM -0.4 °F -12.0 °F -7.6 °F 72% 30.15 in 10.0 mi NNE 5.8 mph - N/A   Scattered Clouds
6:15 AM -0.4 °F -12.0 °F -7.6 °F 72% 30.17 in 10.0 mi North 5.8 mph - N/A   Scattered Clouds
6:34 AM -0.4 °F -10.4 °F -7.6 °F 72% 30.18 in 10.0 mi North 4.6 mph - N/A   Clear
6:54 AM -4.0 °F -16.3 °F -9.4 °F 78% 30.18 in 10.0 mi NNE 5.8 mph - N/A   Clear
7:14 AM -5.8 °F -19.9 °F -9.4 °F 84% 30.19 in 10.0 mi NNE 6.9 mph - N/A   Clear
7:34 AM -5.8 °F -18.4 °F -11.2 °F 77% 30.21 in 10.0 mi North 5.8 mph - N/A   Clear
7:54 AM -5.8 °F -21.2 °F -11.2 °F 77% 30.22 in 10.0 mi North 8.1 mph - N/A   Clear
8:14 AM -5.8 °F -18.4 °F -11.2 °F 77% 30.23 in 10.0 mi North 5.8 mph - N/A   Clear
8:34 AM -5.8 °F -16.7 °F -11.2 °F 77% 30.24 in 10.0 mi North 4.6 mph - N/A   Clear
8:54 AM -4.0 °F -14.6 °F -9.4 °F 78% 30.26 in 10.0 mi North 4.6 mph - N/A   Clear
9:14 AM -2.2 °F - -9.4 °F 71% 30.27 in 10.0 mi Calm Calm - N/A   Clear
9:34 AM -2.2 °F - -7.6 °F 78% 30.28 in 10.0 mi Calm Calm - N/A   Clear
9:54 AM -0.4 °F -12.0 °F -7.6 °F 72% 30.30 in 10.0 mi North 5.8 mph - N/A   Clear
10:14 AM 1.4 °F -11.3 °F -5.8 °F 72% 30.31 in 10.0 mi North 6.9 mph - N/A   Clear
10:34 AM 3.2 °F -7.8 °F -4.0 °F 72% 30.31 in 10.0 mi North 5.8 mph - N/A   Clear
10:54 AM 3.2 °F -4.2 °F -4.0 °F 72% 30.32 in 10.0 mi NNE 3.5 mph - N/A   Clear
11:14 AM 6.8 °F -6.9 °F -2.2 °F 67% 30.32 in 10.0 mi NNE 9.2 mph - N/A   Clear
11:34 AM 8.6 °F -5.5 °F -2.2 °F 62% 30.33 in 10.0 mi NNE 10.4 mph - N/A   Clear
11:54 AM 8.6 °F -2.6 °F -2.2 °F 62% 30.35 in 10.0 mi North 6.9 mph - N/A   Clear
12:14 PM 8.6 °F 2.0 °F -2.2 °F 62% 30.35 in 10.0 mi NNE 3.5 mph - N/A   Clear
12:34 PM 10.4 °F 4.0 °F -2.2 °F 57% 30.36 in 10.0 mi ENE 3.5 mph - N/A   Clear
12:54 PM 10.4 °F 4.0 °F -2.2 °F 57% 30.37 in 10.0 mi East 3.5 mph - N/A   Clear
1:14 PM 10.4 °F 2.2 °F -2.2 °F 57% 30.38 in 10.0 mi East 4.6 mph - N/A   Clear
1:34 PM 10.4 °F 2.2 °F -0.4 °F 62% 30.38 in 10.0 mi East 4.6 mph - N/A   Clear
1:54 PM 12.2 °F 2.9 °F -0.4 °F 57% 30.39 in 10.0 mi East 5.8 mph - N/A   Clear
2:14 PM 12.2 °F 4.3 °F -0.4 °F 57% 30.39 in 10.0 mi East 4.6 mph - N/A   Clear
2:34 PM 12.2 °F 2.9 °F -0.4 °F 57% 30.40 in 10.0 mi East 5.8 mph - N/A   Clear
2:55 PM 12.2 °F 2.9 °F -0.4 °F 57% 30.40 in 10.0 mi East 5.8 mph - N/A   Clear
3:14 PM 12.2 °F 1.7 °F -0.4 °F 57% 30.40 in 10.0 mi ENE 6.9 mph - N/A   Clear
3:34 PM 12.2 °F 1.7 °F -0.4 °F 57% 30.41 in 10.0 mi East 6.9 mph - N/A   Clear
3:55 PM 14.0 °F 3.9 °F -0.4 °F 53% 30.42 in 10.0 mi East 6.9 mph - N/A   Clear
4:14 PM 14.0 °F 5.1 °F -0.4 °F 53% 30.42 in 10.0 mi East 5.8 mph - N/A   Clear
4:34 PM 14.0 °F 3.9 °F -0.4 °F 53% 30.43 in 10.0 mi East 6.9 mph - N/A   Clear
4:55 PM 14.0 °F 6.5 °F -0.4 °F 53% 30.44 in 10.0 mi East 4.6 mph - N/A   Clear
5:14 PM 14.0 °F 5.1 °F 1.4 °F 57% 30.45 in 10.0 mi SSE 5.8 mph - N/A   Clear
5:34 PM 14.0 °F 6.5 °F -0.4 °F 53% 30.45 in 10.0 mi SSE 4.6 mph - N/A   Clear
5:55 PM 14.0 °F 6.5 °F -0.4 °F 53% 30.45 in 10.0 mi SSE 4.6 mph - N/A   Clear
6:14 PM 12.2 °F 6.1 °F -0.4 °F 57% 30.46 in 10.0 mi SSE 3.5 mph - N/A   Clear
6:34 PM 12.2 °F 2.9 °F -0.4 °F 57% 30.47 in 10.0 mi SE 5.8 mph - N/A   Clear
6:55 PM 12.2 °F 4.3 °F -0.4 °F 57% 30.47 in 10.0 mi SE 4.6 mph - N/A   Clear
7:14 PM 12.2 °F 4.3 °F -0.4 °F 57% 30.48 in 10.0 mi ESE 4.6 mph - N/A   Clear
7:34 PM 10.4 °F 4.0 °F -2.2 °F 57% 30.48 in 10.0 mi SE 3.5 mph - N/A   Clear
7:54 PM 8.6 °F 2.0 °F -2.2 °F 62% 30.49 in 10.0 mi ESE 3.5 mph - N/A   Clear
8:14 PM 8.6 °F 2.0 °F -2.2 °F 62% 30.49 in 10.0 mi ESE 3.5 mph - N/A   Clear
8:35 PM 6.8 °F - -2.2 °F 67% 30.50 in 10.0 mi Calm Calm - N/A   Clear
8:54 PM 6.8 °F - -2.2 °F 67% 30.50 in 10.0 mi Calm Calm - N/A   Clear
9:14 PM 8.6 °F - -2.2 °F 62% 30.50 in 10.0 mi Calm Calm - N/A   Clear
9:35 PM 6.8 °F -0.1 °F -4.0 °F 61% 30.50 in 10.0 mi East 3.5 mph - N/A   Clear
9:54 PM 8.6 °F - -5.8 °F 52% 30.51 in 10.0 mi Calm Calm - N/A   Clear
10:14 PM 1.4 °F - -7.6 °F 66% 30.51 in 10.0 mi Calm Calm - N/A   Clear
10:35 PM 1.4 °F - -7.6 °F 66% 30.51 in 10.0 mi Calm Calm - N/A   Clear
10:54 PM 3.2 °F - -5.8 °F 66% 30.51 in 10.0 mi Calm Calm - N/A   Clear
11:14 PM 1.4 °F - -7.6 °F 66% 30.51 in 10.0 mi Calm Calm - N/A   Clear
11:35 PM -0.4 °F - -9.4 °F 66% 30.51 in 10.0 mi Calm Calm - N/A   Clear
11:54 PM -0.4 °F - -7.6 °F 72% 30.52 in 10.0 mi Calm Calm - N/A   Clear